sat.trackr.live / text

‹ back to catalog

UNKNOWN

NORAD 87014

UNKNOWN UNKNOWN UNKNOWN

§ Identity

Operator
Country
Launch date
Launch site
Launch vehicle
Mass (kg)
RCS (m²)

External: N2YO · Heavens-Above

§ Orbital elements

Epoch: 2026-09-12T21:55:21.433728Z

Period
106.42 min
Inclination
100.4677°
Eccentricity
0.0048321
Mean motion
13.53070554 rev/d
Perigee alt
1,025.0 km
Apogee alt
1,096.9 km
Semi-major
7,439.1 km
B*
2.4419e-3
RAAN
240.3623°
Arg perigee
303.9186°
Mean anomaly
84.7095°
Rev number
62,798

§ Raw data

UNKNOWN1 87014U          26255.91344252  .00001593  00000+0  24419-2 0  99992 87014 100.4677 240.3623 0048321 303.9186  84.7095 13.53070554627983

JSON: /api/v1/satellites/87014 · /tle

For live sub-satellite position, see the globe view (requires WebGL).

§ Visibility from observer

Set your observer location to see the next 7 days of passes ≥ 10°. The values pass through the URL so the page stays shareable.

No JS? Fill the form by hand. The geolocation button needs JavaScript.